Location: *
(44.5736°N, 0.0656°W)
Time: 12:58:39
(UTC+00:00)

Daily predictions for brighter satellites

Satellite Brightness Start Highest point End
(mag) Time Altitude Azimuth Time Altitude Azimuth Time Altitude Azimuth
Cosmos 2237 Rocket 3.9 18:30:55 10° N 18:34:22 16° NE 18:37:48 10° E
Cosmos 2251 Rocket 3.9 18:29:54 10° N 18:35:07 47° ENE 18:40:17 10° SE
Cosmos 2315 Rocket 4.3 18:31:42 10° SSW 18:37:58 77° W 18:44:14 10° N
Envisat 4.0 18:33:05 10° S 18:38:02 52° W 18:43:00 10° NNW
GEOS 3 Rocket 3.6 18:34:55 10° SE 18:40:01 73° NE 18:45:07 10° NW
Aureole 1 Rocket 3.9 18:38:52 10° N 18:44:09 39° ENE 18:48:11 10° SE
Timation 2 Rocket 4.2 18:38:21 10° S 18:44:43 51° ESE 18:50:52 10° NE
CSL-04 Rocket 4.3 18:40:13 10° S 18:45:39 65° WSW 18:51:11 10° NNW
Genesis I 3.9 18:42:14 10° NW 18:46:07 56° WSW 18:49:53 10° SSE
SJ-6B 4.2 18:43:53 10° ESE 18:47:08 23° ENE 18:50:22 10° NNE
Nadezhda 1 Rocket 4.4 18:41:43 10° SSE 18:47:17 39° E 18:52:52 10° NNE
Cosmos 1939 Rocket 2.7 18:45:34 10° SSE 18:49:23 68° ENE 18:53:14 10° N
Cosmos 1536 Rocket 3.5 18:46:08 10° N 18:50:25 61° ENE 18:54:43 10° SSE
Cosmos 2322 Rocket 4.0 18:48:38 10° NW 18:53:39 35° WSW 18:58:40 10° SSW
YAOGAN 1 3.8 18:51:51 10° S 18:56:00 46° W 19:00:11 10° NNW
Cosmos 1025 Rocket 3.0 18:52:58 10° N 18:57:13 61° E 19:01:25 10° SSE
Cosmos 1707 4.1 18:54:27 10° NNE 18:57:32 22° ENE 19:00:07 12° ESE
ASTEX 1 4.0 18:54:43 10° NNE 18:59:10 34° E 19:03:36 10° SSE
CZ-2C R/B 4.2 18:55:12 10° NNE 18:59:20 35° E 19:03:23 10° SSE
Meteor 2-15 4.4 18:54:55 10° S 19:00:58 64° E 19:07:03 10° NNE
USA 32 4.1 18:55:45 10° N 19:01:01 87° W 19:06:15 10° S
SL-16 R/B 4.2 19:00:27 10° NNE 19:02:20 12° NE 19:04:12 10° ENE
Cosmos 2333 4.2 18:57:07 10° NNW 19:02:47 71° ENE 19:08:28 10° SSE
Cosmos 389 Rocket 4.3 19:01:52 10° NNE 19:03:48 14° ENE 19:04:27 14° E
Cosmos 1378 3.3 19:02:45 10° N 19:06:32 78° W 19:10:17 10° S
Meteor 1-12 Rocket 4.3 19:00:59 10° S 19:06:39 63° E 19:12:16 10° NNE
COSMOS 2428 2.8 19:05:12 10° NNW 19:10:49 58° ENE 19:16:10 11° SE
Meteor 1-4 Rocket 4.3 19:12:12 10° NNE 19:14:18 15° ENE 19:14:27 15° ENE
CZ-2D R/B 4.2 19:10:44 10° S 19:14:25 49° W 19:18:08 10° NNW
Cosmos 2322 3.9 19:09:12 10° NNW 19:14:57 78° WSW 19:20:40 10° SSE
Cosmos 2219 Rocket 2.2 19:09:45 10° NNW 19:15:19 61° ENE 19:20:22 12° SE
Cosmos 2151 Rocket 4.0 19:11:01 10° SSW 19:15:24 66° W 19:19:48 10° N
Cosmos 1975 4.3 19:14:51 10° SSW 19:18:36 40° WNW 19:22:24 10° N
Cosmos 2341 Rocket 4.5 19:13:04 10° N 19:18:55 39° ENE 19:23:53 14° SE
Ariane Rocket 3.6 19:15:14 10° S 19:20:13 61° W 19:25:15 10° NNW
Lacrosse 4 Rocket 4.1 19:17:45 10° WNW 19:20:29 18° WSW 19:23:11 10° SSW
Cosmos 2074 Rocket 4.3 19:17:06 10° NNW 19:23:21 73° W 19:29:31 10° S
Cosmos 1300 Rocket 4.4 19:19:12 10° SSW 19:23:24 52° WNW 19:27:38 10° N
Cosmos 2360 Rocket 3.6 19:20:33 10° NW 19:25:45 39° WSW 19:30:57 10° S
FREGAT/IRIS 2.6 19:24:52 10° S 19:27:39 69° WSW 19:30:28 10° NNW
Cosmos 407 Rocket 4.2 19:28:27 10° N 19:33:10 35° ENE 19:35:14 25° ESE
Cosmos 2219 3.6 19:29:38 10° S 19:34:55 39° ESE 19:40:13 10° NE
NOSS 3-4 (A) 4.0 19:30:18 10° NNW 19:37:13 61° NE 19:42:04 23° ESE
NOSS 3-4 (C) 4.0 19:30:25 10° NNW 19:37:19 61° NE 19:42:08 24° ESE
SPOT 3 Rocket 3.4 19:32:30 10° SSE 19:37:34 76° ENE 19:42:43 10° N
Cosmos 2227 Rocket 3.3 19:38:55 23° E 19:38:55 23° E 19:42:21 10° NE
Cosmos 1461 2.9 19:34:58 10° SW 19:39:00 74° NW 19:42:58 10° NNE
Cosmos 2154 Rocket 4.0 19:37:17 10° N 19:43:31 85° W 19:49:43 10° S
Cosmos 1455 Rocket 4.0 19:44:42 29° E 19:44:42 29° E 19:48:09 10° NNE
SL-8 R/B 3.8 19:41:35 10° WSW 19:46:23 77° NNW 19:49:21 23° ENE
Cosmos 2297 Rocket 2.8 19:48:53 31° ESE 19:49:05 31° ESE 19:53:59 10° NE
Cosmos 405 Rocket 3.7 19:54:00 29° NE 19:54:00 29° NE 19:56:13 10° NNE
ARGOS 3.1 19:49:52 22° SSE 19:53:21 72° ENE 19:58:43 10° N
USA 186 2.8 19:51:59 16° S 19:54:22 49° W 19:57:43 10° NNW
Resurs 01 Rocket 1.9 19:55:57 42° E 19:56:40 46° ENE 20:00:56 10° N
Resurs 1-3 3.6 19:55:47 42° SE 19:57:02 61° ENE 20:01:23 10° N
Spot 2 Rocket 4.3 19:57:18 31° ENE 19:57:47 31° ENE 20:02:13 10° N
COSMOS 2455 4.0 19:53:46 10° NW 19:59:19 39° WSW 20:04:49 10° S
SL-8 Rocket 4.0 19:55:56 10° N 20:02:04 58° ENE 20:04:44 33° SE
Okean 1 Rocket 4.1 19:59:15 10° SSW 20:03:24 46° WNW 20:07:37 10° N
Cosmos 2333 Rocket 2.8 19:58:35 10° NNW 20:04:10 56° WSW 20:08:27 17° S
Cosmos 1140 Rocket 3.8 20:01:06 10° N 20:06:06 45° ENE 20:06:48 42° E
Meteor 2-5 Rocket 4.0 20:01:32 10° N 20:07:12 52° ENE 20:08:42 42° ESE
Cosmos 1371 Rocket 3.9 20:02:08 10° S 20:07:21 65° ESE 20:12:40 10° NNE
H-2A R/B 2.0 20:06:40 26° S 20:09:29 78° WSW 20:14:30 10° NNW
SL-24 R/B 4.2 20:10:06 56° ESE 20:10:41 63° ENE 20:15:24 10° N
ADEOS Rocket 3.4 20:09:51 10° NNE 20:17:08 86° ESE 20:24:53 10° SSW
Cosmos 1959 Rocket 4.4 20:11:14 10° N 20:17:19 63° E 20:19:02 45° SE
Terra 4.2 20:18:42 10° NE 20:18:42 10° NE 20:18:59 10° NE
Cosmos 2237 Rocket 2.1 20:13:40 10° NNW 20:19:24 78° ENE 20:20:51 52° SE
MetOp-A 4.0 20:18:46 47° SSE 20:20:23 81° ENE 20:25:46 10° NNW
ATLAS 2AS CENTAUR R/B 3.2 20:13:29 10° NW 20:20:58 60° WSW 20:24:53 27° S
SJ-6B 4.5 20:18:29 14° SSW 20:21:36 33° W 20:25:21 10° NNW
Cosmos 676 Rocket 4.2 20:18:35 10° NNW 20:23:44 52° ENE 20:23:53 52° ENE
Meteor 2-17 Rocket 4.4 20:17:46 10° N 20:23:54 86° W 20:26:43 34° S
In-Cosmos 22 4.1 20:19:34 10° NNW 20:24:55 77° W 20:27:03 38° S
Cosmos 1980 3.6 20:22:19 10° NNW 20:28:00 85° WSW 20:29:21 54° SSE
Cosmos 1674 4.3 20:30:00 10° N 20:31:52 27° N 20:31:52 27° N
Okean 1-7 Rocket 4.2 20:33:00 10° NNW 20:37:18 52° W 20:38:08 45° SW
Cosmos 389 Rocket 4.1 20:35:34 10° NNW 20:38:21 32° W 20:38:21 32° W
Cosmos 1892 Rocket 4.3 20:35:02 10° NNW 20:39:22 51° W 20:40:06 46° SW
Cosmos 1190 Rocket 4.1 20:35:49 10° NNW 20:41:05 70° WSW 20:41:47 62° SSW
CZ-2C R/B 3.4 20:45:09 52° SSW 20:46:10 63° W 20:51:33 10° NNW
SL-16 R/B 2.5 20:42:17 10° NNW 20:47:27 52° NE 20:47:27 52° NE
Meteor 1-4 Rocket 4.4 20:46:15 10° NNW 20:48:40 30° WNW 20:48:40 30° WNW
Cosmos 2219 Rocket 4.3 20:54:43 10° NW 20:58:44 21° W 21:02:07 12° SW
DMSP B5D2-2 4.2 20:56:00 10° N 21:01:17 70° WNW 21:01:29 69° W
Cosmos 2056 Rocket 4.4 21:01:27 10° SW 21:06:43 49° WNW 21:11:59 10° NNE
SPOT 1/Viking Rocket 4.5 21:09:52 41° NNE 21:09:52 41° NNE 21:13:20 10° N
SPOT 5 4.5 21:11:43 26° NNE 21:11:43 26° NNE 21:14:07 10° N
CZ-2C R/B 3.3 21:10:40 10° NNE 21:14:46 52° N 21:14:46 52° N
USA 245 4.5 21:17:35 79° WNW 21:17:35 79° WNW 21:23:24 10° NNW
Cosmos 2227 Rocket 2.8 21:20:30 47° W 21:21:34 54° WNW 21:27:09 10° NNE
BREEZE-M DEB (TANK) 4.4 21:16:43 10° WNW 21:21:56 76° NNE 21:24:37 53° E
Cosmos 2297 Rocket 3.2 21:30:18 26° WSW 21:32:58 43° WNW 21:38:22 10° NNE
Resurs 01 Rocket 4.0 21:33:32 18° W 21:33:32 18° W 21:36:29 10° NW
ERS-1 Rocket 4.4 21:40:25 34° NNW 21:40:25 34° NNW 21:43:15 10° NNW
USA 234 4.1 21:42:11 40° NNE 21:42:41 41° NNE 21:48:43 10° NW
Terra 4.0 21:57:36 21° NNW 21:57:36 21° NNW 21:59:13 10° NNW
Cosmos 2237 Rocket 4.4 21:59:24 10° WNW 22:02:41 16° W 22:02:41 16° W
SL-16 R/B 4.4 22:27:05 10° NW 22:29:20 19° WNW 22:29:20 19° WNW
CZ-4C R/B 4.2 23:07:38 10° NNW 23:12:51 32° NNE 23:12:51 32° NNE
